Vorticity
nan nan nan nan nan nan nan nan nan nan nan nan nan nan nan nan nan nan nan nan nan nan nan nan nan nan nan nan nan nan nan nan
nan 7 6 5 3 5 6 6 5 6 5 5 6 5 6 6 5 5 4 4 5 5 4 4 5 5 6 5 6 7 6 nan
nan 6 6 6 6 5 5 6 5 5 5 5 5 6 7 4 5 6 5 5 5 4 5 5 5 5 6 9 9 7 5 nan
nan 6 5 4 6 8 6 5 5 6 6 5 4 7 6 6 7 7 7 6 6 6 6 6 6 7 8 6 7 7 7 nan
nan 5 6 5 4 4 6 7 8 10 8 5 6 6 7 6 7 8 8 7 7 8 7 7 7 6 6 7 8 7 7 nan
nan 5 5 5 4 7 6 6 6 7 10 7 4 6 7 6 7 8 7 8 7 7 7 8 7 7 7 7 7 7 8 nan
nan 5 5 7 4 4 7 7 7 7 8 7 5 6 7 6 7 7 7 7 7 7 7 7 7 8 8 8 7 8 7 nan
nan 6 6 5 6 4 5 7 7 7 7 8 6 4 6 6 7 7 6 6 7 7 7 7 9 9 8 8 7 7 7 nan
nan 7 6 6 6 5 5 6 7 7 8 9 7 5 5 5 6 7 7 8 7 7 7 8 8 8 9 7 7 8 9 nan
nan 8 8 6 5 6 6 7 7 7 8 10 9 6 5 5 6 7 7 7 8 8 8 7 8 8 7 7 8 8 8 nan
nan 9 8 8 7 6 8 7 7 8 8 9 10 8 6 5 6 7 7 7 8 8 8 9 7 7 7 8 8 9 8 nan
nan 8 9 8 7 8 8 8 8 8 7 8 8 9 9 5 6 7 7 6 7 8 8 7 9 10 7 7 8 9 9 nan
nan 6 7 6 7 7 7 8 7 8 10 10 8 8 9 5 6 8 7 8 8 7 9 6 7 8 6 7 7 8 8 nan
nan 8 7 3 4 6 8 9 9 10 9 11 10 8 7 7 7 9 7 7 10 9 5 4 9 7 1 7 9 6 9 nan
nan 11 8 8 5 5 5 7 9 10 8 10 12 10 7 7 6 7 9 8 9 10 9 4 5 7 4 6 9 10 9 nan
nan 17 12 11 10 7 6 3 6 7 9 8 12 12 9 8 8 8 7 8 9 8 9 6 6 7 6 6 6 12 9 nan
nan 19 19 12 10 6 6 4 4 8 10 11 10 12 13 9 9 8 6 7 11 10 7 6 5 9 9 7 8 6 8 nan
nan 12 18 18 12 9 6 5 4 4 6 8 9 10 15 14 9 8 8 8 10 10 9 8 4 5 10 8 9 9 9 nan
nan 7 10 17 17 11 10 8 9 7 5 7 8 7 10 15 11 7 8 11 9 10 9 10 8 8 8 8 8 9 10 nan
nan nan nan nan nan nan nan nan nan nan nan nan nan nan nan nan nan nan nan nan nan nan nan nan nan nan nan nan nan nan nan nan
CAPE
865 581 746 731 707 555 501 559 584 623 739 816 891 799 763 926 952 862 682 438 275 133 51 18 10 1 0 0 0 1 576 313
861 711 728 879 901 288 239 322 371 411 490 579 498 353 430 540 565 763 644 413 250 143 41 0 0 0 0 0 0 0 640 382
633 751 638 821 816 627 163 165 224 250 321 373 278 193 358 463 339 467 566 449 265 181 64 0 0 0 0 0 9 630 615 577
499 781 645 583 364 640 590 338 284 319 296 411 330 297 276 160 155 160 355 244 194 112 23 0 12 258 435 59 595 719 743 452
418 435 597 470 287 461 456 354 347 358 373 343 321 187 194 131 107 45 43 59 16 0 1 14 96 244 562 851 810 693 528 160
360 347 371 396 296 239 277 239 252 204 194 330 273 198 98 54 0 0 22 19 111 3 0 18 86 300 719 1012 713 230 48 0
391 257 250 262 378 192 192 152 106 86 137 208 142 94 51 21 22 0 0 60 214 88 3 0 70 367 878 746 26 0 0 0
413 267 237 309 403 299 236 134 63 87 88 140 228 125 97 16 69 52 49 109 264 235 99 204 596 736 289 20 0 0 0 0
261 360 306 454 415 367 251 103 56 52 61 132 179 214 164 74 104 207 385 394 389 309 159 656 381 10 0 0 0 0 0 0
103 162 360 405 415 342 203 118 75 54 63 89 172 225 214 167 128 130 419 632 510 332 314 298 0 0 0 0 0 0 0 0
355 160 247 380 392 324 280 165 104 75 60 88 137 209 228 252 206 213 408 672 664 504 404 21 0 0 0 0 0 0 0 0
809 397 310 217 326 265 184 146 117 108 98 83 135 221 224 288 298 363 448 646 967 727 229 0 0 0 0 0 0 0 0 0
1315 743 642 311 305 309 312 298 161 145 147 201 221 193 307 526 398 467 721 890 1220 722 101 0 0 0 0 0 0 0 0 0
1666 1440 1011 509 390 346 324 327 327 217 248 269 206 293 454 472 636 635 669 817 1053 366 0 0 0 0 0 0 0 0 0 0
1282 1648 1638 1290 790 440 369 411 377 376 415 364 367 364 483 660 727 878 993 1117 650 102 0 0 0 0 0 0 0 0 0 0
607 1184 1506 1699 1469 1087 933 929 961 866 872 680 618 571 498 702 880 972 1145 991 905 63 0 0 0 0 0 0 0 0 0 0
0 8 1024 1749 1742 1513 1481 1252 1383 1456 1190 1069 943 600 659 762 983 1166 1096 858 650 49 0 0 0 0 0 0 0 0 0 0
0 0 0 705 1798 1778 1763 1602 1552 1644 1657 1397 1240 712 427 660 888 1132 1021 728 228 5 0 0 0 0 0 0 0 0 0 0
0 0 0 7 918 1708 1930 1915 1787 1652 1839 1676 1495 1056 654 454 614 841 770 393 73 0 0 0 0 0 0 0 0 0 0 0
0 0 0 0 76 887 1727 1964 1896 1704 1801 1887 1551 1544 1120 633 475 636 462 14 2 0 0 0 0 0 0 0 0 0 0 0